Marc Fuchs

球探 - VfL Wolfsburg
7 十二月 2028
星期四
處理

性格

適應力 (15) 野心 (14) 爭議性 (14) 忠誠度 (9) 抗壓 (15) 職業素養 (13) 體育精神 (1) 性情 (20)

個人檔案

執教風格 民主型
教練證照 洲際職業級
決心 13
人員管理 8
激勵 7
紀律 13
工作滿意度
100%
疲勞度
0%
職務 球探
薪資 98.1K 每週
合約 14.03.2029

性能

行為 良好
訓練效果
58%
球員發展
70%
傷病預防
30%
戰術執行
70%

近期事件

参加了招募会议 刚刚
参加了招募会议 7天前
推荐了转会目标 7天前
考察了一名球員 7天前
考察了一名球員 7天前
觀察了一場比賽 7天前
考察了一名球員 7天前
考察了一名球員 14天前

正在监控

113
球員 俱樂部 狀態 能力 信心 已观察 最后观察 最新投票
Celías Ingenthron Platense 活跃 119 / 129 40% 5 05.12.2028 -
Estêvão Portsmouth 活跃 155 / 156 40% 3 05.12.2028 -
Álvaro Montoro Botafogo 活跃 143 / 137 40% 8 03.12.2028 -
Mihajlo Cvetković Club Brugge 活跃 133 / 134 40% 2 03.12.2028 -
Harry Gray Harrogate Town 活跃 131 / 138 40% 1 01.12.2028 -
Luis Otávio Orlando City 活跃 107 / 126 40% 3 28.11.2028 -
Babis Kostoulas Oxford United 活跃 146 / 155 40% 2 28.11.2028 -
Honest Ahanor Atalanta 活跃 146 / 144 40% 13 26.11.2028 -
Matías Arias Vélez 活跃 115 / 122 40% 4 26.11.2028 -
Ayyoub Bouaddi Stoke City 活跃 152 / 157 40% 2 26.11.2028 -
Lucca São Paulo 活跃 119 / 122 40% 3 24.11.2028 -
Sebastian Rodriguez Houston Dynamo 活跃 114 / 124 40% 2 24.11.2028 -
Mikey Moore Stockport County 活跃 147 / 146 40% 1 24.11.2028 -
Olivier Mambwa Young Boys 活跃 112 / 122 40% 8 23.11.2028 -
Lisandro Piñero Banfield 活跃 126 / 124 40% 3 22.11.2028 -
Rio Ngumoha Plymouth Argyle 活跃 146 / 148 40% 2 22.11.2028 -
Jacob Peter Hödl Sturm Graz 活跃 123 / 126 40% 1 22.11.2028 -
Aarón Ochoa Málaga 活跃 126 / 133 40% 2 19.11.2028 -
Santiago Segovia Rosario Central 活跃 109 / 121 40% 1 19.11.2028 -
Franco Mastantuono Córdoba 活跃 151 / 152 40% 1 18.11.2028 -
Lennart Karl TSG Hoffenheim 活跃 138 / 154 40% 1 15.11.2028 -
Valentino Huertas Morón 活跃 102 / 109 40% 1 13.11.2028 -
Ethan Nwaneri Arsenal 活跃 159 / 160 40% 1 12.11.2028 -
Geovany Quenda Watford 活跃 149 / 156 40% 1 09.11.2028 -
Joris Boguo Wolfsberger AC 活跃 104 / 110 40% 1 07.11.2028 -
Ibrahim Mbaye Queens Park Rangers 活跃 147 / 144 40% 3 06.11.2028 -
Tahiel Peralta Racing Club 活跃 108 / 116 40% 1 06.11.2028 -
Johannes Moser Sturm Graz 活跃 107 / 119 40% 1 06.11.2028 -
Peyton Miller New England Revolution 活跃 107 / 119 40% 1 06.10.2028 -
Ryunosuke Sato Eibar 活跃 133 / 138 40% 1 04.10.2028 -
Matias Siltanen Malmo FF 活跃 131 / 133 40% 3 02.10.2028 -
Ramazan Bağdat Kairat 活跃 106 / 112 40% 1 02.10.2028 -
Facundo Krüger Temperley 活跃 117 / 113 40% 1 28.08.2028 -
Endrick Boca Juniors 活跃 164 / 162 40% 1 28.08.2028 -
Thomas Schlupp BA All Stars 活跃 114 / 109 40% 1 28.08.2028 -
Mathias Honsak Heidenheim 已失去 135 / 134 76% 1 21.08.2028 赞成
Adam Hložek TSG Hoffenheim 已失去 146 / 145 76% 1 14.08.2028 -
Trey Nyoni Rotherham United 活跃 142 / 151 40% 6 08.08.2028 -
Shea Lacey Crystal Palace 活跃 143 / 141 40% 2 08.08.2028 -
Ryan McAidoo Oldham Athletic 活跃 133 / 132 40% 2 08.08.2028 -
Arnaud Kalimuendo Nottingham Forest 活跃 150 / 153 40% 1 05.07.2028 -
Brandon Thomas-Asante Blackpool 活跃 125 / 128 40% 1 05.07.2028 -
Iliman N'Diaye Everton 活跃 161 / 162 40% 2 04.07.2028 -
Ez Abde Betis 活跃 157 / 156 40% 1 04.07.2028 -
William Osula Wrexham 活跃 143 / 136 40% 1 03.07.2028 -
Christopher Nkunku AC Milan 活跃 168 / 162 40% 1 03.07.2028 -
Isaac Romero Sevilla 已失去 149 / 142 40% 1 26.06.2028 -
Yousef Salech Cardiff City 已失去 138 / 131 40% 1 26.06.2028 -
Rayan Hamburger SV 活跃 140 / 153 40% 1 18.06.2028 -
Saïd El Mala Köln 活跃 148 / 153 76% 1 03.06.2028 赞成
Tyler Fletcher Rotherham United 活跃 113 / 116 40% 3 31.05.2028 -
Kerim Alajbegović Modena 活跃 138 / 137 40% 1 31.05.2028 -
Ben Broggio Mansfield Town 活跃 114 / 120 40% 1 31.05.2028 -
Daniel Banjaqui Benfica 活跃 119 / 126 40% 11 29.05.2028 -
Jorge Salinas Racing Santander 活跃 136 / 139 40% 8 29.05.2028 -
Christos Mouzakitis Hull City 活跃 132 / 141 40% 3 28.05.2028 -
Giovanni Leoni Lincoln City 活跃 142 / 141 40% 7 27.05.2028 -
Héctor Fort Real Sociedad 活跃 147 / 142 40% 4 25.05.2028 -
Jan Bürger Northampton Town 活跃 125 / 128 40% 2 25.05.2028 -
Josh Nichols Oldham Athletic 活跃 123 / 122 40% 7 23.05.2028 -
Givairo Read Feyenoord 活跃 152 / 156 40% 6 22.05.2028 -
Martim Cunha Porto 活跃 109 / 110 40% 6 22.05.2028 -
Marc Bernal Sevilla 活跃 151 / 156 40% 6 20.05.2028 -
Riquelme Thompson-Jones Accrington Stanley 活跃 107 / 115 40% 5 20.05.2028 -
Andrija Bulatović Chamois Niortais 活跃 129 / 132 40% 4 19.05.2028 -
Pau Cubarsí Real Sociedad 活跃 161 / 167 40% 11 18.05.2028 -
Bernardo Lima Porto 活跃 109 / 115 40% 4 18.05.2028 -
Ayden Heaven Portsmouth 活跃 147 / 150 40% 7 18.05.2028 -
Jorthy Mokio ADO Den Haag 活跃 130 / 137 40% 6 06.05.2028 -
Josh Acheampong Everton 活跃 137 / 145 40% 3 06.04.2028 -
Izan Merino Málaga 活跃 125 / 131 40% 2 05.04.2028 -
Prosper Peter Olympique Lyonnais 活跃 111 / 123 40% 1 29.06.2027 -
Finn Azaz Southampton 活跃 130 / 132 40% 1 18.05.2027 -
Georges Mikautadze Villarreal 活跃 152 / 151 40% 1 18.05.2027 -
Joe Gelhardt Hull City 活跃 138 / 137 40% 1 18.05.2027 -
Manu Koné AS Roma 活跃 167 / 164 40% 2 15.05.2027 -
Chemsdine Talbi Sunderland 活跃 147 / 141 40% 2 13.05.2027 -
Roberto Fernández Braga 活跃 150 / 142 40% 6 11.05.2027 -
Kevin Fulham 活跃 146 / 150 40% 2 09.05.2027 -
Aimar Osasuna 活跃 148 / 148 40% 1 09.05.2027 -
Pablo Torre Mallorca 活跃 140 / 146 40% 1 08.05.2027 -
Jonathan Dubasin Osasuna 活跃 138 / 141 40% 1 08.05.2027 -
David Larrubia Málaga 活跃 139 / 133 40% 1 02.05.2027 -
Savinho Tottenham 活跃 153 / 152 40% 1 01.05.2027 -
Omar El Hilali Espanyol 活跃 145 / 154 40% 1 01.05.2027 -
Andrés Martín Racing Santander 已失去 144 / 132 40% 4 27.04.2027 -
Francisco Conceição Köln 活跃 151 / 156 40% 3 12.04.2027 -
Yeremy Pino Crystal Palace 活跃 156 / 151 40% 3 11.04.2027 -
Osame Sahraoui LOSC Lille 活跃 141 / 142 40% 1 06.04.2027 -
Pau Víctor Braga 活跃 135 / 140 40% 1 04.04.2027 -
Takefusa Kubo VfB Stuttgart 活跃 158 / 160 40% 2 31.03.2027 -
Geny Sporting CP 活跃 148 / 148 40% 2 31.03.2027 -
Mikel Jauregizar Athletic Bilbao 活跃 159 / 159 40% 3 21.03.2027 -
Alfon Sevilla 活跃 145 / 136 40% 1 10.03.2027 -
Petter Nosa Dahl Rapid Wien 活跃 124 / 120 40% 2 25.12.2026 -
Carlos Álvarez Club America 活跃 146 / 146 40% 1 25.12.2026 -
Oihan Sancet Athletic Bilbao 活跃 153 / 157 40% 3 20.12.2026 -
Christantus Uche Getafe 活跃 132 / 138 40% 1 20.12.2026 -
Sota Kitano Red Bull Salzburg 活跃 130 / 118 40% 2 16.12.2026 -
Yorbe Vertessen Red Bull Salzburg 活跃 127 / 127 40% 2 15.12.2026 -
Metinho Basel 活跃 126 / 127 40% 2 10.12.2026 -
João Pedro Chelsea 活跃 146 / 154 40% 1 10.12.2026 -
Moisés Caicedo Chelsea 活跃 161 / 165 40% 2 07.12.2026 -
Carlos Forbs Club Brugge 活跃 142 / 137 40% 1 27.11.2026 -
Oswin Appollis Orlando Pirates 活跃 125 / 120 40% 1 20.11.2026 -
Mattia Zanotti Young Boys 活跃 121 / 128 40% 1 09.11.2026 -
Matthias Seidl Rapid Wien 活跃 122 / 123 40% 1 31.10.2026 -
Amadou Onana Aston Villa 活跃 148 / 149 40% 1 26.10.2026 -
Michael Olise Bayern Munich 活跃 181 / 180 40% 1 23.10.2026 -
Maurits Kjærgaard Red Bull Salzburg 活跃 121 / 131 40% 1 20.10.2026 -
Felix Nmecha Borussia Dortmund 活跃 152 / 166 40% 1 04.08.2026 -
Frenkie de Jong Barcelona 活跃 156 / 167 40% 1 01.08.2026 -
Cody Gakpo Liverpool 活跃 153 / 161 40% 1 01.08.2026 -